Powrót do katalogu

COSMOS 1410 DEB

AktywnyPO
NORAD 44696·DEBRIS·🇷🇺 Russia

Wystrzelony Sep 24, 1982 z Plesetsk Cosmodrome

Loading…

Następne Przeloty (najbliższe 24 godziny)

TLE

Starzejące sięSource: Space-Track

Epoka: Sep 3, 2026, 05:47 UTC

1 44696U 82096C   26246.24109056  .00000021  00000-0  77463-4 0  9995
2 44696  82.6049  62.7443 0004972 127.5956 232.5576 12.42653940537161

Śledź COSMOS 1410 DEB w czasie rzeczywistym z AllMySat

Download on the App Store